www.pogodaiklimat.ru

Погода и климат >> Архив погоды >> Норвегия >> Маяк Fruholmen


ПОГОДА на Маяке Fruholmen

  • Прогноз погоды на Маяке Fruholmen
  • Монитор погоды на Маяке Fruholmen

АРХИВ ПОГОДЫ на Маяке Fruholmen

Время (UTC), дата Ветер
(напр.,м/с)
 
Видим.   Явления Облачность Т
(С)
Тd
(С)
f
(%)
Тe
(С)
Тes
(С)
Комфортность P
(гПа)
Po
(гПа)
Тmin
(С)
Tmax
(С)
R
(мм)
R24
(мм)
S
(см)
10 11.06 З 6-7
{8}
н/о н/о +5.2 +0.2 70 0 0 1028.4 1026.6
11 11.06 З 7-8
{10}
н/о н/о +5.7 -0.1 66 +1 +1 1028.6 1026.8
12 11.06 З 7-8
{10}
н/о н/о +5.8 +0.3 68 +1 +1 1028.8 1027.0
13 11.06 ЮЗ 6-7
{9}
н/о н/о +5.3 +1.2 75 0 0 1028.9 1027.1
14 11.06 З 7-8
{8}
н/о н/о +5.4 +1.6 76 0 0 1028.7 1026.9
15 11.06 З 7-8
{9}
н/о н/о +5.9 +1.4 73 +1 +1 1028.9 1027.1
16 11.06 З 4-4
{8}
н/о н/о +5.1 +1.5 78 +1 +1 1029.2 1027.4
17 11.06 СЗ 7-9
{9}
н/о н/о +5.5 0.0 68 0 0 1029.3 1027.5
18 11.06 СЗ 6-7
{9}
н/о н/о +5.3 +1.2 75 0 0 1029.4 1027.6 +3.7 +6.0
19 11.06 З 6-7
{7}
н/о н/о +5.4 +0.8 72 +1 +1 1029.5 1027.7
20 11.06 СЗ 5-5
{7}
н/о н/о +5.3 +0.7 72 +1 +1 1029.7 1027.9
21 11.06 З 5-6
{6}
н/о н/о +5.3 0.0 69 +1 +1 1029.7 1027.9
22 11.06 З 3-4
{8}
н/о н/о +4.3 +0.9 79 +1 +1 1029.9 1028.1
23 11.06 З 8-9
{9}
н/о н/о +5.1 +0.5 72 -1 -1 1030.0 1028.2
00 12.06 З 8-10
{10}
н/о н/о +4.9 -0.1 70 -1 -1 1030.0 1028.2
01 12.06 З 6-7
{10}
н/о н/о +5.3 -0.3 67 +1 +1 1030.1 1028.3
02 12.06 З 7-8
{8}
н/о н/о +5.2 +1.3 76 -0 -0 1029.9 1028.1
03 12.06 З 7-9
{10}
н/о н/о +4.9 +1.5 79 -1 -1 1030.1 1028.3
04 12.06 З 7-8
{9}
н/о н/о +4.5 +1.7 82 -1 -1 1030.2 1028.4
05 12.06 СЗ 6-7
{8}
н/о н/о +4.8 +1.5 79 -0 -0 1030.3 1028.5
06 12.06 З 5-6
{10}
н/о н/о +5.3 +1.3 75 +1 +1 1030.2 1028.4 +4.1 +5.8
07 12.06 СЗ 4-5
{6}
н/о н/о +5.1 +1.3 76 +1 +1 1030.6 1028.8
08 12.06 З 5-6
{6}
н/о н/о +5.6 +0.1 68 +1 +1 1030.7 1028.9
09 12.06 З 3-4
{6}
н/о н/о +6.1 -0.9 61 +3 +3 1031.0 1029.2
10 12.06 ЮЗ 3-4
{4}
н/о н/о +6.6 -0.5 60 +4 +4 1031.1 1029.3
11 12.06 ЮЗ 4-4
{5}
н/о н/о +5.8 -0.8 63 +2 +2 1030.9 1029.1
12 12.06 ЮЗ 3-3
{6}
н/о н/о +6.1 -0.4 63 +3 +3 1030.9 1029.1
13 12.06 ЮЗ 2-3
{3}
н/о н/о +6.7 -0.5 60 +5 +5 1030.8 1029.0
14 12.06 ЮЗ 3-3
{3}
н/о н/о +6.8 -0.6 59 +4 +4 1030.3 1028.5
15 12.06 С 1-3
{3}
н/о н/о +6.3 -0.5 62 +6 +6 1030.2 1028.4
16 12.06 СВ 4-4
{5}
н/о н/о +6.0 -0.2 64 +3 +3 1029.9 1028.1
17 12.06 СВ 4-5
{5}
н/о н/о +5.9 +0.4 68 +2 +2 1029.5 1027.7
18 12.06 СВ 5-6
{6}
н/о н/о +5.6 +0.5 70 +1 +1 1029.3 1027.5 +4.9 +7.2
19 12.06 СВ 6-7
{7}
н/о н/о +5.6 +1.2 73 +1 +1 1028.9 1027.1
20 12.06 СВ 7-7
{7}
н/о н/о +5.6 +1.4 74 +1 +1 1028.8 1027.0
21 12.06 СВ 7-8
{8}
н/о н/о +5.6 +1.8 77 0 0 1028.6 1026.8
22 12.06 СВ 8-9
{9}
н/о н/о +5.6 +1.7 76 0 0 1028.4 1026.6
23 12.06 СВ 7-8
{9}
н/о н/о +5.7 +2.2 78 +1 +1 1028.4 1026.6
00 13.06 СВ 7-8
{9}
н/о н/о +5.6 +2.4 80 0 0 1027.9 1026.1
01 13.06 СВ 7-8
{9}
н/о н/о +5.7 +2.5 80 +1 +1 1027.5 1025.7
02 13.06 СВ 8-9
{9}
н/о н/о +5.7 +2.1 78 0 0 1027.0 1025.2
03 13.06 СВ 9-10
{10}
н/о н/о +6.0 +1.9 75 0 0 1027.0 1025.2
04 13.06 СВ 10-11
{11}
н/о н/о +6.0 +1.8 74 0 0 1026.7 1024.9
05 13.06 СВ 10-11
{11}
н/о н/о +6.0 +1.9 75 0 0 1026.6 1024.8
06 13.06 СВ 11-12
{12}
н/о н/о +6.0 +2.1 76 -0 -0 1026.5 1024.7 +5.5 +6.1
07 13.06 СВ 10-12
{12}
н/о н/о +5.9 +1.9 75 0 0 1026.7 1024.9
08 13.06 СВ 10-11
{11}
н/о н/о +5.8 +2.0 77 -0 -0 1026.8 1025.0
09 13.06 СВ 9-10
{11}
н/о н/о +5.9 +1.9 75 0 0 1026.6 1024.8
10 13.06 СВ 9-10
{11}
н/о н/о +5.8 +2.2 78 0 0 1027.0 1025.2
11 13.06 СВ 9-10
{10}
н/о н/о +5.7 +2.5 80 -0 -0 1027.0 1025.2
12 13.06 СВ 8-9
{12}
н/о н/о +5.7 +2.5 80 0 0 1027.1 1025.3
13 13.06 СВ 8-9
{9}
н/о н/о +5.7 +2.3 79 0 0 1026.9 1025.1
14 13.06 СВ 8-9
{9}
н/о н/о +5.6 +2.1 78 0 0 1026.9 1025.1
15 13.06 СВ 8-9
{9}
н/о н/о +5.5 +1.6 76 0 0 1027.0 1025.2
16 13.06 СВ 7-8
{9}
н/о н/о +5.6 +1.5 75 +1 +1 1026.7 1024.9
17 13.06 С 8-9
{9}
н/о н/о +5.3 +1.8 78 -0 -0 1026.6 1024.8
18 13.06 С 5-6
{9}
н/о н/о +5.2 +1.0 74 +1 +1 1026.3 1024.5 +5.1 +6.0
19 13.06 С 4-5
{6}
н/о н/о +5.1 +0.6 73 +1 +1 1026.1 1024.3
20 13.06 С 3-4
{6}
н/о н/о +4.8 +0.2 72 +2 +2 1026.1 1024.3
21 13.06 С 4-5
{5}
н/о н/о +4.8 0.0 71 +1 +1 1026.2 1024.4
22 13.06 СЗ 3-5
{6}
н/о н/о +4.8 +0.2 72 +2 +2 1026.0 1024.2
23 13.06 З 2-4
{6}
н/о н/о +4.9 +0.4 73 +2 +2 1025.1 1023.3
00 14.06 З 3-5
{6}
н/о н/о +4.7 +0.4 74 +1 +1 1025.1 1023.3
01 14.06 З 5-7
{7}
н/о н/о +4.7 +0.3 73 0 0 1024.5 1022.7
02 14.06 З 6-7
{8}
н/о н/о +4.9 +0.2 72 0 0 1023.7 1021.9
03 14.06 З 6-8
{8}
н/о н/о +5.1 +0.9 74 0 0 1023.2 1021.4
04 14.06 З 6-8
{10}
н/о н/о +5.1 +0.9 74 0 0 1023.1 1021.3
05 14.06 З 6-9
{10}
н/о н/о +5.4 +1.2 74 +1 +1 1022.1 1020.3
06 14.06 З 8-10
{10}
н/о н/о +5.7 +1.2 73 0 0 1021.8 1020.0 +4.5 +5.7
07 14.06 З 9-11
{11}
н/о н/о +5.8 +1.6 74 0 0 1021.5 1019.7
08 14.06 З 9-10
{12}
н/о н/о +5.5 +1.6 76 -0 -0 1021.3 1019.5
09 14.06 З 9-11
{11}
н/о н/о +5.6 +1.9 77 -0 -0 1020.9 1019.1
10 14.06 З 8-10
{12}
н/о н/о +5.5 +1.9 78 -0 -0 1021.1 1019.3
11 14.06 З 7-8
{10}
н/о н/о +5.3 +2.4 82 -0 -0 1021.3 1019.5
12 14.06 З 8-10
{12}
н/о н/о +5.1 +2.8 85 -1 -1 1021.3 1019.5
13 14.06 З 6-6
{9}
н/о н/о +5.4 +3.3 86 0 0 1021.5 1019.7
14 14.06 З 6-7
{7}
н/о н/о +5.4 +3.4 87 0 0 1021.3 1019.5
15 14.06 З 7-8
{8}
н/о н/о +5.4 +2.9 84 0 0 1021.1 1019.3
16 14.06 З 6-7
{8}
н/о н/о +5.1 +3.0 86 0 0 1021.2 1019.4
17 14.06 З 6-7
{7}
н/о н/о +5.3 +3.0 85 0 0 1021.1 1019.3
18 14.06 З 5-7
{9}
н/о н/о +5.4 +2.5 82 +1 +1 1020.8 1019.0 +5.0 +6.0
19 14.06 З 5-7
{8}
н/о н/о +4.8 +2.7 86 0 0 1020.8 1019.0
20 14.06 З 6-9
{9}
н/о н/о +4.9 +3.0 87 -0 -0 1020.3 1018.5
21 14.06 З 6-8
{9}
н/о н/о +5.0 +2.7 85 -0 -0 1020.7 1018.9
22 14.06 З 6-8
{8}
н/о н/о +4.8 +2.5 85 -0 -0 1020.7 1018.9
23 14.06 З 5-6
{8}
н/о н/о +4.9 +2.9 87 0 0 1020.6 1018.8
00 15.06 З 6-8
{9}
н/о н/о +4.8 +2.9 87 -0 -0 1020.1 1018.3
01 15.06 З 5-7
{8}
н/о н/о +4.8 +2.7 86 0 0 1019.9 1018.1
02 15.06 З 6-7
{8}
н/о н/о +4.6 +2.9 89 -1 -1 1019.4 1017.6
03 15.06 З 5-6
{8}
н/о н/о +4.8 +3.0 88 0 0 1019.4 1017.6
04 15.06 ЮЗ 5-6
{8}
н/о н/о +4.8 +3.0 88 0 0 1019.3 1017.5
05 15.06 ЮЗ 6-8
{9}
н/о н/о +4.9 +3.1 88 -0 -0 1018.8 1017.0
06 15.06 ЮЗ 7-8
{9}
н/о н/о +5.0 +3.0 87 -1 -1 1018.1 1016.3 +4.5 +5.4
07 15.06 ЮЗ 7-9
{10}
н/о н/о +5.1 +3.0 86 -0 -0 1018.2 1016.4
08 15.06 ЮЗ 8-9
{9}
н/о н/о +5.2 +3.1 86 -1 -1 1017.9 1016.1
09 15.06 ЮЗ 10-12
{12}
н/о н/о +5.4 +3.3 86 -1 -1 1017.3 1015.5
10 15.06 ЮЗ 10-13
{13}
н/о н/о +5.4 +3.3 86 -1 -1 1017.1 1015.3
11 15.06 ЮЗ 10-14
{14}
н/о н/о +5.6 +3.4 86 -1 -1 1016.5 1014.7
12 15.06 ЮЗ 10-13
{15}
н/о н/о +5.7 +3.5 86 -1 -1 1016.2 1014.4
13 15.06 ЮЗ 11-15
{16}
н/о н/о +5.6 +3.5 86 -1 -1 1015.5 1013.7
14 15.06 ЮЗ 11-15
{16}
н/о н/о +5.7 +3.7 87 -1 -1 1015.2 1013.4
15 15.06 ЮЗ 12-16
{16}
н/о н/о +5.6 +3.7 88 -1 -1 1014.6 1012.8
16 15.06 ЮЗ 14-17
{17}
н/о н/о +5.6 +3.7 88 -2 -2 1013.9 1012.1
17 15.06 ЮЗ 13-16
{17}
н/о н/о +5.8 +4.1 89 -1 -1 1013.8 1012.0
18 15.06 ЮЗ 13-16
{17}
н/о н/о +5.8 +3.8 87 -1 -1 1013.3 1011.5 +4.9 +5.9
19 15.06 ЮЗ 13-17
{17}
н/о н/о +5.7 +3.9 88 -1 -1 1013.0 1011.2
20 15.06 З 14-16
{17}
н/о н/о +5.5 +3.8 89 -2 -2 1013.0 1011.2
21 15.06 З 12-15
{16}
н/о н/о +5.7 +4.0 89 -1 -1 1013.1 1011.3
22 15.06 З 12-14
{15}
н/о н/о +5.6 +3.5 86 -1 -1 1013.3 1011.5
23 15.06 З 11-14
{14}
н/о н/о +5.5 +3.4 86 -1 -1 1013.7 1011.9
00 16.06 З 11-13
{17}
н/о н/о +5.6 +3.5 86 -1 -1 1013.8 1012.0
01 16.06 З 11-13
{13}
н/о н/о +5.5 +3.3 86 -1 -1 1013.7 1011.9
02 16.06 З 11-13
{13}
н/о н/о +5.5 +3.3 86 -1 -1 1013.8 1012.0
03 16.06 З 11-13
{13}
н/о н/о +5.6 +3.2 85 -1 -1 1013.7 1011.9
04 16.06 ЮЗ 10-12
{14}
н/о н/о +5.7 +3.3 85 -1 -1 1013.7 1011.9
05 16.06 ЮЗ 10-12
{13}
н/о н/о +6.3 +3.9 85 0 0 1013.8 1012.0
06 16.06 З 11-12
{14}
н/о н/о +6.5 +4.0 84 0 0 1013.9 1012.1 +5.3 +6.5
07 16.06 З 11-13
{13}
н/о н/о +6.7 +4.0 83 +1 +1 1013.5 1011.7
08 16.06 З 11-13
{13}
н/о н/о +6.8 +3.9 82 +1 +1 1013.9 1012.1
09 16.06 З 13-14
{14}
н/о н/о +6.7 +3.7 81 0 0 1014.3 1012.5
10 16.06 З 13-14
{15}
н/о н/о +6.7 +3.6 81 0 0 1014.3 1012.5
11 16.06 З 11-13
{14}
н/о н/о +6.9 +4.0 82 +1 +1 1014.8 1013.0
12 16.06 З 11-12
{15}
н/о н/о +6.7 +3.7 81 +1 +1 1014.7 1012.9
13 16.06 З 11-13
{14}
н/о н/о +6.7 +3.6 81 +1 +1 1014.3 1012.5
14 16.06 З 10-12
{13}
н/о н/о +6.6 +3.7 82 +1 +1 1014.6 1012.8
15 16.06 З 9-11
{11}
н/о н/о +6.9 +3.9 81 +2 +2 1014.8 1013.0
16 16.06 З 8-11
{11}
н/о н/о +6.6 +3.1 78 +1 +1 1015.0 1013.2
17 16.06 З 8-10
{11}
н/о н/о +6.3 +2.8 78 +1 +1 1014.7 1012.9
18 16.06 З 9-11
{14}
н/о н/о +6.1 +2.8 79 0 0 1014.5 1012.7 +6.1 +7.0
19 16.06 З 6-8
{12}
н/о н/о +5.9 +2.4 78 +1 +1 1014.5 1012.7
20 16.06 З 6-8
{10}
н/о н/о +5.7 +2.2 78 +1 +1 1014.0 1012.2
21 16.06 З 8-10
{10}
н/о н/о +5.6 +2.2 79 0 0 1013.6 1011.8
22 16.06 З 7-8
{10}
н/о н/о +5.6 +2.2 79 0 0 1013.4 1011.6
23 16.06 З 7-10
{11}
н/о н/о +5.5 +2.0 78 0 0 1012.9 1011.1
00 17.06 З 9-10
{12}
н/о н/о +5.6 +1.8 77 -0 -0 1012.7 1010.9
01 17.06 З 7-8
{10}
н/о н/о +5.6 +1.7 76 0 0 1012.8 1011.0
02 17.06 З 8-10
{10}
н/о н/о +5.6 +1.6 75 0 0 1012.4 1010.6
03 17.06 З 7-8
{9}
н/о н/о +5.6 +1.7 76 0 0 1012.2 1010.4
04 17.06 З 8-9
{9}
н/о н/о +5.4 +1.3 75 -0 -0 1011.8 1010.0
05 17.06 З 7-9
{9}
н/о н/о +5.3 +1.0 74 0 0 1011.6 1009.8
06 17.06 З 6-7
{10}
н/о н/о +5.3 +1.4 76 0 0 1011.8 1010.0 +5.3 +6.1
07 17.06 З 7-8
{8}
н/о н/о +5.3 +1.0 74 0 0 1011.7 1009.9
08 17.06 З 6-7
{8}
н/о н/о +5.7 +1.3 73 +1 +1 1011.6 1009.8
09 17.06 З 6-7
{8}
н/о н/о +5.9 +1.1 71 +1 +1 1011.6 1009.8
10 17.06 З 7-8
{8}
н/о н/о +5.9 +1.2 72 +1 +1 1011.7 1009.9
11 17.06 З 6-7
{8}
н/о н/о +6.1 +1.5 72 +2 +2 1012.0 1010.2
12 17.06 З 6-8
{8}
н/о н/о +6.2 +1.2 70 +2 +2 1012.2 1010.4
13 17.06 З 6-7
{8}
н/о н/о +6.1 +1.4 72 +2 +2 1012.0 1010.2
14 17.06 З 5-6
{8}
н/о н/о +5.9 +1.3 72 +2 +2 1012.1 1010.3
15 17.06 З 5-7
{8}
н/о н/о +6.1 +1.7 73 +2 +2 1012.3 1010.5
16 17.06 З 4-6
{8}
н/о н/о +6.1 +1.2 71 +3 +3 1012.4 1010.6
17 17.06 З 5-7
{7}
н/о н/о +6.1 +1.8 74 +2 +2 1012.1 1010.3
18 17.06 СЗ 4-5
{8}
н/о н/о +5.5 +2.3 80 +2 +2 1011.8 1010.0 +5.2 +6.3
19 17.06 СЗ 4-5
{6}
н/о н/о +5.5 +2.0 78 +2 +2 1011.8 1010.0
20 17.06 СЗ 5-6
{7}
н/о н/о +5.5 +1.0 73 +1 +1 1011.9 1010.1
21 17.06 З 4-5
{8}
н/о н/о +5.5 +0.6 71 +2 +2 1012.0 1010.2
22 17.06 СЗ 5-6
{6}
н/о н/о +5.5 +0.4 70 +1 +1 1012.0 1010.2
23 17.06 З 4-5
{6}
н/о н/о +5.5 +0.1 68 +2 +2 1012.2 1010.4
00 18.06 С 4-7
{8}
н/о н/о +5.3 +0.8 73 +1 +1 1012.2 1010.4
01 18.06 СЗ 2-3
{5}
н/о н/о +5.3 +0.9 73 +3 +3 1012.1 1010.3
02 18.06 СЗ 5-6
{6}
н/о н/о +5.1 +0.8 74 +1 +1 1011.9 1010.1
03 18.06 СЗ 4-5
{6}
н/о н/о +5.0 0.0 70 +1 +1 1011.9 1010.1
05 18.06 З 2-4
{6}
н/о н/о +4.9 0.0 71 +3 +3 1011.8 1010.0
06 18.06 СЗ 2-3
{6}
н/о н/о +5.0 +0.2 71 +3 +3 1011.8 1010.0 +4.7 +5.7
07 18.06 СЗ 2-3
{3}
н/о н/о +5.0 +0.2 71 +3 +3 1011.8 1010.0
08 18.06 СЗ 3-3
{3}
н/о н/о +4.9 +0.1 71 +2 +2 1011.8 1010.0
09 18.06 С 2-3
{3}
н/о н/о +5.2 +0.1 70 +3 +3 1012.0 1010.2
10 18.06 С 2-3
{3}
н/о н/о +5.1 -0.1 69 +3 +3 1011.7 1009.9

 

Местоположение метеостанции Маяк Fruholmen (Норвегия): широта 71.09 долгота 23.98 высота над уровнем моря 13 м.

В архиве по умолчанию представлена погода на Маяке Fruholmen за последнюю неделю. Архивные данные за месяц целиком и за предыдущие месяцы, начиная с января 2011 года, Вы можете получить, выбрав интересующий диапазон дат из раскрывающегося списка и нажав кнопку "Ввод!".


*Определитесь, кто Вы:
робот инопланетянин человек

Внимание! Время в таблицах - всемирное. Для получения местного времени необходимо прибавить поправку, которая равна 1 ч.

Смотрите также архив погоды в соседних городах и на ближайших метеорологических станциях:

Погода в Хаммерфест аэропорту (Норвегия) (51 км)
Погода в Хоннигсвог аэропорту (Норвегия) (73 км)
Погода на Хасвике (Норвегия) (78 км)
Погода в Рогнсундете (Норвегия) (87 км)
Погода в Хасвик аэропорту (Норвегия) (95 км)
Погода в Банаке (Норвегия) (120 км)
Погода в Альта аэропорту (Норвегия) (126 км)
Погода в Мехамн аэропорту (Норвегия) (139 км)
Погода на Маяке Slettnes (Норвегия) (153 км)
Погода в Суоловуопми-Лулит (Норвегия) (169 км)

Пояснения к столбцам:

Ветер - указаны скорость ветра в м/с - средняя за 10 мин, порывы в срок и между сроками (в фигурных скобках) и направление, откуда дует ветер: С - северный, СВ - северо-восточный, В - восточный, ЮВ - юго-восточный, Ю - южный, ЮЗ - юго-западный, З - западный, СЗ - северо-западный.
Видимость - горизонтальная дальность видимости в метрах или километрах. При видимости от 1 до 10 км при отсутствии осадков обычно наблюдается дымка, при ухудшении видимости до 1 км и менее - туман. В сухую погоду видимость может ухудшаться дымом, пылью или мглою.
Явления - указаны атмосферные явления, наблюдавшиеся в срок или в последний час перед сроком; фигурными скобками обозначены явления, наблюдавшиеся между сроками (за 1-3 часа до срока); квадратными скобками обозначены град или гололедные отложения с указанием их диаметра в мм.
Облачность - указаны через наклонную черту общая и нижняя облачность в баллах и высота нижней границы облаков в метрах; квадратными скобками обозначены формы облаков: Ci - перистые, Cs - перисто-слоистые, Cc - перисто-кучевые, Ac - высококучевые, As - высокослоистые, Sc - слоисто-кучевые, Ns - слоисто-дождевые, Cu - кучевые, Cb - кучево-дождевые. Подробнее классификацию облаков см. в Атласе облаков (PDF).
T - Температура воздуха - температура, измеренная на высоте 2 м над землей.
Td - Температура точки росы - температура, при понижении до которой содержащийся в воздухе водяной пар достигнет насыщения.
f - Относительная влажность воздуха - влажноcть воздуха, измеренная на высоте 2 м над землей.
Te - Эффективная температура - температура, которую ощущает одетый по сезону человек в тени. Характеристика душности погоды. При расчете учитывается влияние влажности воздуха и скорости ветра на теплоощущения человека.
Tes - Эффективная температура на солнце - температура, которую ощущает человек, с поправкой на солнечный нагрев. Характеристика знойности погоды. Зависит от высоты солнца над горизонтом, облачности и скорости ветра. Ночью, в пасмурную погоду, а также при ветре 12 м/с и более поправка равна нулю.
P - Атмосферное давление - приведенное к уровню моря атмосферное давление.
Po - Атмосферное давление - измеренное на уровне метеостанции атмосферное давление.
Tmin - Минимальная температура - минимум температуры воздуха на высоте 2 м над землей.
Tmax - Максимальная температура - максимум температуры воздуха на высоте 2 м над землей.
R - Количество осадков - Количество выпавших осадков за период времени, мм. При наведении курсора мыши на число - период времени, за который выпало указанное количество осадков.
R24 - Количество осадков - Количество выпавших осадков за 24 часа, мм.
S - Снежный покров - Высота снежного покрова, см. При наведении курсора мыши на число - состояние снежного покрова и степень покрытия местности в баллах.